[[{"header":{"parameterUnit":"m.s-1","parameterCategory":1,"la1":30.2991,"la2":30.254,"lo1":-89.0895,"lo2":-89.0444,"dy":0.0017,"dx":0.0017,"nx":28,"ny":28,"refTime":"2026-02-04T03:00:00:Z","depth":0,"parameterNumber":2,"parameterNumberName":"U-component_of_WINDS"},"data":[0,0,0,0,0,0,0,0,0,0,0,0,0,0,0,0,0,0,0,0,0,0,0,0,0,0,0,0,0,0,0,0,0,0,0,0,0,0,0,0,0,0,0,0,0,0,0,0,0,0,0,0,0,0,0,0,0,0,1.23,1.23,0,1.2364,1.2364,1.2365,1.2345,1.2344,1.2343,1.2341,1.2411,1.2414,1.2417,0,0,0,0,0,0,0,0,0,0,0,0,0,1.2164,1.2166,1.23,1.23,1.2301,1.2364,1.2364,1.2365,1.2346,1.2344,1.2342,1.2341,1.241,1.2414,1.2418,0,0,0,0,0,0,0,0,0,0,0,0,0,1.2225,1.2167,1.2299,1.2299,1.2299,1.2363,1.2364,1.2366,1.2346,1.2344,1.2342,1.234,1.2409,1.2414,1.2418,1.2488,0,0,1.2433,1.2435,0,0,0,0,0,0,0,0,1.2221,1.223,1.2298,1.2299,1.23,1.2344,1.2342,1.2407,1.2346,1.2328,1.2341,1.2339,1.2391,1.2397,1.2414,1.2491,1.2494,1.2433,1.2436,1.2438,1.2439,0,0,0,0,0,0,0,1.2217,1.2227,1.2325,1.2299,1.23,1.2296,1.2303,1.2354,1.2371,1.233,1.2328,1.2336,1.2391,1.2409,1.2415,1.2495,1.2433,1.2437,1.244,1.2442,1.2635,1.2637,0,0,0,0,0,0,1.2212,1.2224,1.2323,1.2327,1.2254,1.23,1.2308,1.2332,1.237,1.2374,1.2338,1.2335,1.2402,1.241,1.2418,1.2503,1.2438,1.2442,1.2445,1.2633,1.2635,1.2638,0,0,0,0,0,0,1.2209,1.2221,1.232,1.2275,1.2287,1.2305,1.2333,1.2334,1.2353,1.2376,1.2379,1.2353,1.2401,1.2411,1.2471,1.2505,1.2444,1.2449,1.263,1.2634,1.2637,1.2674,0,0,0,0,0,0,1.2205,1.222,1.2246,1.2276,1.229,1.2371,1.2335,1.2337,1.236,1.2357,1.2391,1.2395,1.24,1.2464,1.2475,1.251,1.2452,1.2627,1.2632,1.2636,1.267,1.2678,1.2685,0,0,0,0,0,1.22,1.2254,1.2247,1.2259,1.2322,1.2373,1.2382,1.2385,1.2363,1.239,1.2405,1.2394,1.2499,1.247,1.2483,1.252,1.2625,1.263,1.2635,1.2666,1.2676,1.2685,0,0,0,0,0,0,1.223,1.2258,1.2251,1.2316,1.2342,1.237,1.2404,1.2396,1.243,1.2426,1.243,1.2438,1.25,1.2516,1.2483,1.259,1.2559,1.2567,1.2578,1.2588,1.2595,1.2591,1.2456,0,0,0,0,0,1.2243,1.2281,1.2305,1.236,1.2373,1.2386,1.2409,1.2409,1.2437,1.2449,1.2468,1.2497,1.2537,1.2563,1.26,1.2671,1.2679,1.2703,1.2711,1.2717,1.2725,1.2764,1.2776,1.2655,1.2655,1.2655,0,0,1.2273,1.2293,1.2317,1.2366,1.2387,1.2427,1.2396,1.244,1.2471,1.2456,1.2514,1.2529,1.2561,1.2627,1.2657,1.2642,1.2759,1.2724,1.2729,1.2733,1.2771,1.2782,1.2792,1.2659,1.2658,1.2657,0,0,1.2348,1.2366,1.2414,1.2435,1.2466,1.2474,1.2486,1.2515,1.2524,1.2581,1.2572,1.2608,1.2676,1.27,1.2721,1.2804,1.2796,1.2816,1.2858,1.2897,1.2907,1.2915,1.2946,1.2957,1.2823,1.2824,1.2824,0,1.2381,1.244,1.2441,1.2486,1.2508,1.2495,1.2545,1.2565,1.2608,1.2624,1.2606,1.2691,1.2712,1.2784,1.2804,1.2821,1.2836,1.2813,1.2905,1.2913,1.2921,1.2951,1.2963,1.2826,1.2826,1.2825,1.2825,0,1.248,1.2521,1.2557,1.2597,1.2623,1.267,1.2679,1.2706,1.2704,1.2715,1.2774,1.2798,1.2841,1.2858,1.2856,1.293,1.292,1.2903,1.2872,1.2935,1.2963,1.2975,1.2829,1.2829,1.2828,1.2827,0,0,1.2576,1.2615,1.2628,1.2647,1.268,1.2712,1.2759,1.28,1.2823,1.2853,1.2893,1.2951,1.2936,1.296,1.2961,1.2995,1.3061,1.2974,1.2975,1.2991,1.3145,1.3158,1.3171,1.3055,1.3057,1.3058,1.3142,0,1.2655,1.2736,1.2738,1.2813,1.2852,1.284,1.2881,1.2907,1.2918,1.2953,1.2966,1.3007,1.2983,1.2998,1.303,1.3046,1.3092,1.3039,1.3095,1.3096,1.3088,1.3186,1.32,1.3278,1.3153,1.3155,1.3157,0,1.2757,1.2789,1.2868,1.2896,1.2912,1.2949,1.2986,1.302,1.3049,1.3055,1.3081,1.3077,1.3127,1.3093,1.3162,1.3126,1.3149,1.316,1.3163,1.317,1.3132,1.3197,1.3303,1.3315,1.3174,1.3172,1.3171,0,1.2821,1.2884,1.2939,1.2955,1.2988,1.3015,1.303,1.3057,1.3081,1.3114,1.313,1.3169,1.3191,1.3222,1.3229,1.3203,1.3299,1.3265,1.3307,1.3307,1.3329,1.3328,1.3442,1.3341,1.334,1.334,1.334,0,1.291,1.2959,1.2968,1.3003,1.3058,1.306,1.3115,1.3128,1.3152,1.319,1.3181,1.3217,1.3224,1.3262,1.3268,1.3326,1.3335,1.3342,1.3344,1.3344,1.3343,1.336,1.3356,1.3343,1.3343,1.3342,1.3341,0,1.2991,1.2999,1.3059,1.3086,1.3093,1.3133,1.3156,1.319,1.3199,1.3247,1.3259,1.3274,1.3318,1.3328,1.3381,1.3385,1.3454,1.3449,1.3444,1.3444,1.3485,1.3482,1.3616,1.3634,1.3519,1.352,1.3521,0,1.3048,1.3085,1.3116,1.314,1.3156,1.3195,1.3219,1.3223,1.3249,1.3285,1.3315,1.3357,1.3392,1.3463,1.348,1.3521,1.3518,1.3562,1.3524,1.3524,1.3521,1.3519,1.3524,1.357,1.3571,1.3572,1.3573,0,1.3148,1.315,1.3185,1.3222,1.3251,1.3281,1.3309,1.3329,1.3337,1.3367,1.3411,1.3438,1.3491,1.3534,1.3575,1.3592,1.3585,1.3584,1.3597,1.3598,1.3594,1.3599,1.3465,1.3582,1.3581,1.358,1.358,1.3579,1.322,1.3253,1.328,1.3319,1.334,1.3367,1.34,1.3413,1.345,1.3492,1.3492,1.3541,1.357,1.3623,1.3643,1.3682,1.3669,1.3686,1.3691,1.3695,1.37,1.3586,1.369,1.3689,1.3689,1.3689,1.3689,0,1.3321,1.3337,1.3374,1.3413,1.3444,1.3432,1.3463,1.349,1.3533,1.356,1.3594,1.3645,1.3687,1.3707,1.3749,1.3777,1.3774,1.3788,1.3787,1.3791,1.3709,1.3695,1.3789,1.3789,1.3789,1.3789,1.3789,1.3789,1.3378,1.3433,1.3439,1.3505,1.3521,1.3568,1.3587,1.3611,1.3633,1.369,1.3725,1.3737,1.3761,1.3805,1.3843,1.3848,1.3865,1.388,1.3884,1.3807,1.3797,1.3787,1.3774,1.3883,1.3884,1.3963,1.3964,1.3964]},{"header":{"parameterUnit":"m.s-1","parameterCategory":1,"la1":30.2991,"la2":30.254,"lo1":-89.0895,"lo2":-89.0444,"dy":0.0017,"dx":0.0017,"nx":28,"ny":28,"refTime":"2026-02-04T03:00:00:Z","depth":0,"parameterNumber":3,"parameterNumberName":"V-component_of_WINDS"},"data":[0,0,0,0,0,0,0,0,0,0,0,0,0,0,0,0,0,0,0,0,0,0,0,0,0,0,0,0,0,0,0,0,0,0,0,0,0,0,0,0,0,0,0,0,0,0,0,0,0,0,0,0,0,0,0,0,0,0,2.1469,2.1471,0,2.1663,2.1665,2.1667,2.1642,2.1639,2.1636,2.1633,2.1836,2.1845,2.1853,0,0,0,0,0,0,0,0,0,0,0,0,0,2.1082,2.1089,2.1469,2.1471,2.1474,2.1662,2.1665,2.1668,2.1643,2.1639,2.1635,2.1631,2.1834,2.1844,2.1854,0,0,0,0,0,0,0,0,0,0,0,0,0,2.126,2.1092,2.1469,2.1484,2.1487,2.1662,2.1665,2.1668,2.1644,2.1639,2.1634,2.163,2.183,2.1843,2.1855,2.2028,0,0,2.1893,2.1899,0,0,0,0,0,0,0,0,2.125,2.1275,2.1479,2.1483,2.1487,2.1623,2.1603,2.1789,2.1645,2.1585,2.1633,2.1627,2.177,2.1787,2.1834,2.2037,2.2046,2.1895,2.1902,2.1908,2.1911,0,0,0,0,0,0,0,2.1238,2.1266,2.1546,2.1482,2.1487,2.1483,2.1503,2.1638,2.1702,2.1589,2.1588,2.1611,2.1771,2.1822,2.1839,2.2049,2.1894,2.1905,2.1913,2.1918,2.2406,2.2411,0,0,0,0,0,0,2.1221,2.1256,2.154,2.1551,2.1354,2.1493,2.1516,2.1585,2.17,2.1713,2.1615,2.1609,2.1803,2.1824,2.1846,2.2058,2.1907,2.1919,2.1927,2.24,2.2407,2.2413,0,0,0,0,0,0,2.1213,2.1246,2.1532,2.1403,2.1439,2.1505,2.1582,2.1591,2.1642,2.1719,2.1731,2.1655,2.18,2.1828,2.1983,2.2065,2.1925,2.1936,2.2394,2.2402,2.241,2.2482,0,0,0,0,0,0,2.1202,2.1244,2.1309,2.1405,2.1446,2.1665,2.1587,2.1598,2.1663,2.1657,2.176,2.1773,2.1798,2.1964,2.1995,2.2079,2.1946,2.2387,2.2398,2.2407,2.2473,2.2492,2.2508,0,0,0,0,0,2.1188,2.1323,2.1313,2.1347,2.153,2.167,2.1693,2.1719,2.1669,2.1737,2.1786,2.1769,2.2049,2.198,2.2015,2.2104,2.2382,2.2395,2.2406,2.2465,2.2488,2.2508,0,0,0,0,0,0,2.1238,2.1336,2.1326,2.1495,2.1574,2.1665,2.1751,2.1742,2.1838,2.1829,2.1857,2.1881,2.2038,2.2086,2.2007,2.2278,2.2209,2.2229,2.2242,2.2265,2.2282,2.2269,2.1957,0,0,0,0,0,2.1268,2.1372,2.1452,2.1594,2.1634,2.1686,2.1748,2.176,2.1843,2.1877,2.1938,2.2021,2.2128,2.2198,2.23,2.2478,2.2502,2.2556,2.2574,2.2588,2.2606,2.2706,2.2732,2.2453,2.2453,2.2452,0,0,2.1333,2.1399,2.1463,2.1606,2.1669,2.1778,2.1714,2.1832,2.1914,2.1896,2.2046,2.2093,2.2188,2.2355,2.2432,2.24,2.2687,2.2603,2.2614,2.2625,2.2721,2.2747,2.2771,2.2461,2.2459,2.2458,0,0,2.1507,2.1566,2.1692,2.1755,2.1849,2.1882,2.1912,2.2004,2.2035,2.2185,2.2174,2.2272,2.2454,2.2523,2.2581,2.2778,2.2768,2.2811,2.2905,2.3001,2.3023,2.3043,2.3117,2.3143,2.2828,2.2828,2.2828,0,2.1577,2.1739,2.1758,2.1878,2.1942,2.1927,2.2056,2.2116,2.224,2.2285,2.2246,2.2475,2.2537,2.2722,2.277,2.2816,2.2854,2.2802,2.3018,2.3038,2.3057,2.3128,2.3155,2.2833,2.2832,2.2832,2.2831,0,2.1821,2.1933,2.2024,2.2142,2.2215,2.2339,2.2378,2.245,2.2455,2.2492,2.2647,2.272,2.2838,2.2881,2.2887,2.3067,2.3044,2.3011,2.2944,2.3088,2.3155,2.3182,2.284,2.2838,2.2837,2.2835,0,0,2.2037,2.2162,2.2196,2.2249,2.2351,2.2439,2.2561,2.2675,2.2738,2.2822,2.2928,2.3081,2.3051,2.3117,2.313,2.3215,2.337,2.3172,2.3174,2.321,2.3575,2.3603,2.3634,2.336,2.3366,2.337,2.3569,0,2.2225,2.2441,2.2461,2.2655,2.2761,2.2747,2.2853,2.2928,2.2965,2.3061,2.3102,2.3212,2.3162,2.3203,2.3285,2.3334,2.3445,2.3319,2.3463,2.3468,2.3445,2.3668,2.3698,2.3883,2.3595,2.3599,2.3602,0,2.2474,2.2564,2.2769,2.2856,2.2901,2.2997,2.3102,2.3193,2.3277,2.3298,2.3371,2.3373,2.35,2.3423,2.3601,2.3515,2.3574,2.3607,2.3614,2.3633,2.3547,2.3698,2.3942,2.3972,2.3643,2.364,2.3637,0,2.2616,2.2788,2.2934,2.298,2.3084,2.3152,2.3198,2.3277,2.3344,2.3436,2.348,2.3585,2.3645,2.3727,2.3758,2.3698,2.3935,2.386,2.3959,2.3959,2.4015,2.4012,2.4277,2.4044,2.4044,2.4043,2.4043,0,2.2826,2.2953,2.2999,2.3089,2.3231,2.3252,2.3392,2.3435,2.3505,2.3605,2.3597,2.3691,2.3723,2.3823,2.3847,2.3992,2.4018,2.4041,2.4047,2.4044,2.4042,2.4088,2.4077,2.4051,2.4049,2.4048,2.4046,0,2.3012,2.3047,2.3205,2.3289,2.3313,2.3414,2.3487,2.3575,2.3608,2.3734,2.3765,2.3819,2.3936,2.3972,2.4113,2.4129,2.43,2.4292,2.4272,2.4274,2.4373,2.4365,2.4681,2.4725,2.4459,2.4461,2.4463,0,2.3146,2.3244,2.3337,2.3402,2.3451,2.3556,2.3624,2.3647,2.3718,2.382,2.3896,2.401,2.4104,2.429,2.4344,2.4451,2.4449,2.4552,2.4466,2.4461,2.4456,2.4452,2.4463,2.457,2.4573,2.4575,2.4577,0,2.3383,2.3395,2.3491,2.3595,2.3675,2.3757,2.3837,2.3891,2.3926,2.4006,2.4124,2.4196,2.4338,2.4453,2.4562,2.4612,2.4603,2.4602,2.4632,2.4634,2.462,2.4633,2.4322,2.4597,2.4595,2.4593,2.4592,2.4591,2.355,2.3636,2.3716,2.3824,2.3885,2.396,2.4046,2.409,2.4188,2.4305,2.4312,2.4441,2.4522,2.4667,2.4722,2.4823,2.4794,2.4836,2.4848,2.4859,2.4869,2.4598,2.4843,2.4842,2.4842,2.4841,2.4841,0,2.379,2.3839,2.3938,2.4049,2.4134,2.4112,2.4199,2.4273,2.4385,2.4461,2.4552,2.4688,2.4799,2.4859,2.497,2.504,2.5038,2.5069,2.5067,2.5079,2.4887,2.4852,2.5068,2.5068,2.5068,2.5068,2.5068,2.5068,2.3925,2.4071,2.4092,2.4268,2.4316,2.4441,2.4493,2.4562,2.4622,2.4774,2.4865,2.4902,2.4973,2.5088,2.5189,2.5204,2.5247,2.5282,2.5294,2.5115,2.5092,2.507,2.5038,2.529,2.529,2.5479,2.5481,2.5482]}]]